Location: Kavul?ru
(16.6288°N, 80.5832°E)
Time: 12:28:32
(UTC+00:00)

Cosmos 1610 Rocket - Pass Details

Date: 15 May 2026
Orbit: 952 x 1001 km, 82.9° (Epoch: 8 June)

Event Time Altitude Azimuth Distance (km) Brightness Sun altitude
Rises 22:25:50 0° 349° (N) 3,655 7.7 -22.8°
Reaches altitude 10° 22:28:21 10° 346° (NNW) 2,714 7.0 -22.3°
Maximum altitude 22:34:27 60° 268° (W) 1,111 4.5 -21.0°
Enters shadow 22:38:56 19° 193° (SSW) 2,140 5.9 -20.0°
